Eagle River, WI

7:06 AM CDT on September 26, 2017 (GMT -0500)
Eagle River Union

Weather History for KEGV - November, 2011

Change the Weather History Date:

Monday, November 7, 2011

  Actual Average Record
Temperature  
Mean Temperature 39 °F -  
Max Temperature 49 °F 32 °F 60 °F (2016)
Min Temperature 29 °F 19 °F -1 °F (1991)
Degree Days  
Heating Degree Days 26    
Moisture  
Dew Point 21 °F    
Average Humidity 48    
Maximum Humidity 78    
Minimum Humidity 30    
Precipitation  
Precipitation 0.00 in - - ()
Sea Level Pressure  
Sea Level Pressure 30.03 in    
Wind  
Wind Speed 12 mph (WSW)    
Max Wind Speed 21 mph    
Max Gust Speed 31 mph    
Visibility 10 miles    
Events      
Averages and records for this station are not official NWS values.
T = Trace of Precipitation, MM = Missing Value Source: NWS Daily Summary

Daily Weather History Graph

Daily Weather History Graph

Search for Another Location

Airport or City:

Trip Planner

Search our weather history database for the weather conditions in past years. The results will help you decide how hot, cold, wet, or windy it might be!

Date:

Astronomy

Nov. 07, 2011 Rise Set
Actual Time 6:45 AM CST 4:35 PM CST
Civil Twilight 6:13 AM CST 5:06 PM CST
Nautical Twilight 5:38 AM CST 5:42 PM CST
Astronomical Twilight 5:03 AM CST 6:17 PM CST
Moon 2:51 PM CST (11/7) 3:41 AM CST (11/7)
Length of Visible Light 10h 52m
Length of Day
9h 49m
Waxing Gibbous, 92% of the Moon is Illuminated
Nov 7
Waxing Gibbous
Nov 10
Full
Nov 18
Last Quarter
Nov 25
New
Dec 2
First Quarter

Hourly Weather History & Observations

Time (CST) Temp. Windchill Dew Point Humidity Pressure Visibility Wind Dir Wind Speed Gust Speed Precip Events Conditions
12:15 AM 39.9 °F 33.4 °F 25.5 °F 56% 29.91 in 10.0 mi WSW 10.4 mph 16.1 mph N/A   Clear
12:35 AM 39.7 °F 32.3 °F 25.5 °F 57% 29.92 in 10.0 mi WSW 12.7 mph 16.1 mph N/A   Clear
12:55 AM 39.2 °F 31.2 °F 25.3 °F 58% 29.92 in 10.0 mi SW 13.8 mph 17.3 mph N/A   Clear
1:15 AM 39.0 °F 31.8 °F 25.2 °F 58% 29.92 in 10.0 mi SW 11.5 mph 17.3 mph N/A   Clear
1:35 AM 38.7 °F 31.8 °F 24.6 °F 57% 29.92 in 10.0 mi SW 10.4 mph - N/A   Clear
1:55 AM 38.5 °F 30.7 °F 23.9 °F 56% 29.93 in 10.0 mi WSW 12.7 mph 19.6 mph N/A   Clear
2:15 AM 38.3 °F 31.9 °F 23.4 °F 55% 29.93 in 10.0 mi WSW 9.2 mph - N/A   Clear
2:35 AM 37.9 °F 31.5 °F 23.0 °F 55% 29.93 in 10.0 mi SW 9.2 mph - N/A   Clear
2:55 AM 38.1 °F 32.3 °F 22.8 °F 54% 29.93 in 10.0 mi SW 8.1 mph - N/A   Clear
3:15 AM 37.6 °F 31.6 °F 23.0 °F 56% 29.93 in 10.0 mi SW 8.1 mph - N/A   Clear
3:35 AM 37.0 °F 30.4 °F 23.0 °F 57% 29.93 in 10.0 mi SW 9.2 mph - N/A   Clear
3:55 AM 36.5 °F 29.2 °F 23.0 °F 58% 29.93 in 10.0 mi WSW 10.4 mph - N/A   Clear
4:15 AM 36.7 °F 29.9 °F 23.0 °F 58% 29.94 in 10.0 mi SW 9.2 mph - N/A   Clear
4:35 AM 36.7 °F 28.9 °F 22.8 °F 57% 29.94 in 10.0 mi WSW 11.5 mph 17.3 mph N/A   Clear
5:15 AM 37.0 °F 29.3 °F 22.3 °F 55% 29.95 in 10.0 mi SW 11.5 mph 17.3 mph N/A   Clear
5:35 AM 36.9 °F 28.7 °F 22.1 °F 55% 29.95 in 10.0 mi SW 12.7 mph 20.7 mph N/A   Clear
6:15 AM 37.4 °F 28.9 °F 20.5 °F 51% 29.96 in 10.0 mi SW 13.8 mph 20.7 mph N/A   Clear
6:35 AM 37.6 °F 30.0 °F 19.2 °F 48% 29.96 in 10.0 mi SW 11.5 mph 20.7 mph N/A   Clear
6:55 AM 37.2 °F 29.1 °F 19.2 °F 48% 29.96 in 10.0 mi WSW 12.7 mph 18.4 mph N/A   Clear
7:15 AM 36.9 °F 28.7 °F 19.2 °F 49% 29.96 in 10.0 mi SW 12.7 mph - N/A   Clear
7:35 AM 37.4 °F 29.8 °F 18.7 °F 47% 29.98 in 10.0 mi SW 11.5 mph 19.6 mph N/A   Clear
7:55 AM 38.5 °F 29.6 °F 16.9 °F 42% 29.99 in 10.0 mi WSW 16.1 mph 23.0 mph N/A   Clear
8:15 AM 40.3 °F 31.6 °F 16.7 °F 39% 29.98 in 10.0 mi WSW 17.3 mph 25.3 mph N/A   Clear
8:35 AM 41.0 °F 32.5 °F 18.0 °F 40% 29.98 in 10.0 mi West 17.3 mph 25.3 mph N/A   Clear
8:55 AM 42.1 °F 34.5 °F 18.5 °F 39% 29.99 in 10.0 mi WSW 15.0 mph 26.5 mph N/A   Clear
9:15 AM 43.2 °F 35.0 °F 19.2 °F 38% 30.00 in 10.0 mi WSW 18.4 mph 26.5 mph N/A   Clear
9:35 AM 43.7 °F 36.3 °F 19.4 °F 38% 30.01 in 10.0 mi West 16.1 mph 25.3 mph N/A   Clear
9:55 AM 44.6 °F 37.2 °F 19.9 °F 37% 30.01 in 10.0 mi West 17.3 mph 26.5 mph N/A   Clear
10:15 AM 45.3 °F 37.3 °F 19.9 °F 36% 30.02 in 10.0 mi WSW 20.7 mph 31.1 mph N/A   Clear
10:35 AM 46.0 °F 38.5 °F 20.3 °F 36% 30.03 in 10.0 mi WSW 19.6 mph 28.8 mph N/A   Clear
10:55 AM 46.6 °F - 20.1 °F 35% 30.03 in 10.0 mi WSW 20.7 mph 26.5 mph N/A   Clear
11:15 AM 47.1 °F - 19.9 °F 34% 30.04 in 10.0 mi WSW 18.4 mph 24.2 mph N/A   Clear
11:35 AM 47.7 °F - 20.3 °F 34% 30.04 in 10.0 mi WSW 16.1 mph 26.5 mph N/A   Clear
11:55 AM 48.0 °F - 20.3 °F 33% 30.04 in 10.0 mi WSW 17.3 mph 26.5 mph N/A   Clear
12:15 PM 48.2 °F - 19.6 °F 32% 30.04 in 10.0 mi WSW 18.4 mph 28.8 mph N/A   Clear
12:35 PM 48.6 °F - 19.4 °F 32% 30.04 in 10.0 mi West 15.0 mph 26.5 mph N/A   Clear
12:55 PM 49.3 °F - 19.9 °F 31% 30.04 in 10.0 mi WSW 16.1 mph 21.9 mph N/A   Clear
1:15 PM 49.6 °F - 19.9 °F 31% 30.05 in 10.0 mi WSW 17.3 mph - N/A   Clear
1:35 PM 49.6 °F - 19.4 °F 30% 30.05 in 10.0 mi WSW 16.1 mph 23.0 mph N/A   Clear
1:55 PM 49.8 °F - 19.6 °F 30% 30.05 in 10.0 mi West 16.1 mph 23.0 mph N/A   Clear
2:15 PM 49.3 °F - 19.6 °F 31% 30.06 in 10.0 mi West 17.3 mph 25.3 mph N/A   Clear
2:35 PM 49.1 °F - 19.6 °F 31% 30.06 in 10.0 mi WSW 16.1 mph 20.7 mph N/A   Clear
3:15 PM 48.4 °F - 20.7 °F 33% 30.07 in 10.0 mi SW 10.4 mph - N/A   Clear
3:35 PM 47.5 °F - 21.0 °F 35% 30.07 in 10.0 mi WSW 11.5 mph - N/A   Clear
3:55 PM 46.4 °F 41.1 °F 21.2 °F 37% 30.08 in 10.0 mi WSW 11.5 mph 18.4 mph N/A   Clear
4:15 PM 45.1 °F 40.3 °F 21.6 °F 39% 30.09 in 10.0 mi WSW 9.2 mph - N/A   Clear
4:35 PM 43.9 °F 38.8 °F 21.7 °F 41% 30.10 in 10.0 mi WSW 9.2 mph 16.1 mph N/A   Clear
4:55 PM 42.6 °F 37.2 °F 21.9 °F 44% 30.11 in 10.0 mi WSW 9.2 mph - N/A   Clear
5:15 PM 40.8 °F 36.2 °F 21.9 °F 47% 30.12 in 10.0 mi WSW 6.9 mph - N/A   Clear
5:55 PM 37.8 °F 34.2 °F 22.5 °F 54% 30.12 in 10.0 mi West 4.6 mph - N/A   Clear
6:15 PM 37.0 °F 33.3 °F 22.3 °F 55% 30.13 in 10.0 mi West 4.6 mph - N/A   Clear
6:35 PM 36.3 °F 31.6 °F 22.8 °F 58% 30.14 in 10.0 mi WSW 5.8 mph - N/A   Clear
6:55 PM 34.2 °F 30.0 °F 23.0 °F 64% 30.15 in 10.0 mi WSW 4.6 mph - N/A   Clear
7:15 PM 34.2 °F 30.0 °F 23.2 °F 64% 30.15 in 10.0 mi WSW 4.6 mph - N/A   Clear
7:35 PM 32.4 °F 27.9 °F 23.2 °F 69% 30.16 in 10.0 mi West 4.6 mph - N/A   Clear
7:55 PM 32.2 °F 28.9 °F 23.2 °F 69% 30.17 in 10.0 mi West 3.5 mph - N/A   Clear
8:15 PM 32.5 °F - 23.0 °F 68% 30.17 in 10.0 mi Calm Calm - N/A   Clear
8:35 PM 30.4 °F - 22.8 °F 73% 30.18 in 10.0 mi Calm Calm - N/A   Clear
8:55 PM 29.3 °F - 23.2 °F 78% 30.18 in 10.0 mi Calm Calm - N/A   Clear
9:15 PM 29.1 °F - 23.2 °F 78% 30.18 in 10.0 mi Calm Calm - N/A   Clear
9:55 PM 28.4 °F - 23.5 °F 82% 30.17 in 10.0 mi Calm Calm - N/A   Clear
10:15 PM 28.2 °F - 23.5 °F 83% 30.17 in 10.0 mi Calm Calm - N/A   Clear
10:35 PM 28.9 °F 25.2 °F 24.1 °F 82% 30.16 in 10.0 mi WSW 3.5 mph - N/A   Clear
11:15 PM 29.7 °F - 25.5 °F 85% 30.15 in 10.0 mi Calm Calm - N/A   Clear
11:35 PM 29.5 °F - 25.0 °F 83% 30.16 in 10.0 mi Calm Calm - N/A   Clear
11:55 PM 29.1 °F - 25.2 °F 85% 30.16 in 10.0 mi Calm Calm - N/A   Clear